Previsão horária em Abizanda

Hoje, 18 Abril, Domingo

Tempo Temperatura Precipitação Vento Pressão Humidade
00:00 +1°C° 0 mm 3 m/s 709 mmHg 63%
01:00 +1°C° 0 mm 3 m/s 709 mmHg 64%
02:00 +2°C° 0 mm 2 m/s 709 mmHg 65%
03:00 +1°C° 0 mm 2 m/s 709 mmHg 66%
04:00 +2°C° 0 mm 2 m/s 709 mmHg 65%
05:00 +2°C° 0 mm 2 m/s 709 mmHg 64%
06:00 +2°C° 0 mm 2 m/s 709 mmHg 63%
07:00 +5°C° 0 mm 2 m/s 709 mmHg 53%
08:00 +9°C° 0 mm 1 m/s 709 mmHg 44%
09:00 +12°C° 0 mm 1 m/s 709 mmHg 34%
10:00 +13°C° 0 mm 1 m/s 709 mmHg 32%
11:00 +15°C° 0 mm 2 m/s 709 mmHg 30%
12:00 +16°C° 0 mm 3 m/s 709 mmHg 28%
13:00 +16°C° 0 mm 3 m/s 708 mmHg 28%
14:00 +15°C° 0 mm 4 m/s 708 mmHg 28%
15:00 +17°C° 0 mm 4 m/s 708 mmHg 29%
16:00 +16°C° 0 mm 3 m/s 708 mmHg 34%
17:00 +15°C° 0 mm 2 m/s 708 mmHg 40%
18:00 +13°C° 0 mm 2 m/s 708 mmHg 45%
19:00 +12°C° 0 mm 2 m/s 708 mmHg 51%
20:00 +9°C° 0 mm 2 m/s 709 mmHg 56%
21:00 +7°C° 0 mm 3 m/s 709 mmHg 62%
22:00 +6°C° 0 mm 2 m/s 709 mmHg 63%
23:00 +6°C° 0 mm 2 m/s 709 mmHg 65%

Amanhã, 19 Abril, Segunda-feira

Tempo Temperatura Precipitação Vento Pressão Humidade
00:00 +5°C° 0 mm 2 m/s 709 mmHg 66%
01:00 +5°C° 0 mm 2 m/s 709 mmHg 64%
02:00 +5°C° 0 mm 2 m/s 708 mmHg 63%
03:00 +5°C° 0 mm 1 m/s 708 mmHg 61%
04:00 +6°C° 0 mm 1 m/s 708 mmHg 59%
05:00 +6°C° 0 mm 1 m/s 708 mmHg 58%
06:00 +6°C° 0 mm 1 m/s 708 mmHg 56%
07:00 +9°C° 0 mm 1 m/s 708 mmHg 50%
08:00 +11°C° 0 mm 1 m/s 708 mmHg 44%
09:00 +13°C° 0 mm 2 m/s 708 mmHg 38%
10:00 +15°C° 0 mm 2 m/s 708 mmHg 35%
11:00 +16°C° 0 mm 2 m/s 708 mmHg 33%
12:00 +17°C° 0 mm 3 m/s 708 mmHg 31%
13:00 +18°C° 0 mm 3 m/s 707 mmHg 30%
14:00 +18°C° 0 mm 3 m/s 707 mmHg 30%
15:00 +18°C° 0 mm 3 m/s 706 mmHg 29%
16:00 +17°C° 0 mm 2 m/s 706 mmHg 34%
17:00 +16°C° 0 mm 2 m/s 706 mmHg 39%
18:00 +15°C° 0 mm 1 m/s 706 mmHg 44%
19:00 +13°C° 0 mm 1 m/s 706 mmHg 48%
20:00 +12°C° 0 mm 1 m/s 707 mmHg 53%
21:00 +10°C° 0 mm 1 m/s 707 mmHg 57%
22:00 +10°C° 0 mm 1 m/s 707 mmHg 62%
23:00 +9°C° 0 mm 1 m/s 707 mmHg 67%

Depois de amanhã, 20 Abril, Terça-feira

Tempo Temperatura Precipitação Vento Pressão Humidade
00:00 +8°C° 0 mm 1 m/s 707 mmHg 72%
01:00 +9°C° 0 mm 1 m/s 707 mmHg 72%
02:00 +9°C° 0 mm 1 m/s 707 mmHg 72%
03:00 +9°C° 0 mm 1 m/s 706 mmHg 71%
04:00 +9°C° 0 mm 1 m/s 706 mmHg 71%
05:00 +8°C° 0 mm 0 m/s 707 mmHg 71%
06:00 +9°C° 0 mm 0 m/s 707 mmHg 70%
07:00 +11°C° 0 mm 1 m/s 707 mmHg 68%
08:00 +12°C° 0 mm 1 m/s 707 mmHg 67%
09:00 +13°C° 0 mm 2 m/s 707 mmHg 65%
10:00 +13°C° 0.1 mm 2 m/s 707 mmHg 65%
11:00 +13°C° 0.1 mm 2 m/s 706 mmHg 65%
12:00 +13°C° 0.1 mm 2 m/s 706 mmHg 65%
13:00 +13°C° 0.1 mm 2 m/s 706 mmHg 66%
14:00 +13°C° 0.1 mm 2 m/s 706 mmHg 66%
15:00 +13°C° 0.1 mm 2 m/s 705 mmHg 67%
16:00 +13°C° 0.1 mm 1 m/s 705 mmHg 69%
17:00 +12°C° 0.1 mm 1 m/s 705 mmHg 71%
18:00 +12°C° 0.1 mm 1 m/s 705 mmHg 73%
19:00 +12°C° 0 mm 1 m/s 706 mmHg 76%
20:00 +11°C° 0 mm 1 m/s 706 mmHg 78%
21:00 +11°C° 0 mm 1 m/s 706 mmHg 81%
22:00 +10°C° 0.2 mm 1 m/s 706 mmHg 83%
23:00 +9°C° 0.2 mm 0 m/s 706 mmHg 85%

21 Abril, Quarta-feira

Tempo Temperatura Precipitação Vento Pressão Humidade
00:00 +8°C° 0.2 mm 0 m/s 706 mmHg 87%
01:00 +8°C° 0 mm 0 m/s 706 mmHg 88%
02:00 +8°C° 0 mm 0 m/s 705 mmHg 89%
03:00 +8°C° 0 mm 0 m/s 705 mmHg 89%
04:00 +7°C° 0 mm 0 m/s 705 mmHg 89%
05:00 +7°C° 0 mm 0 m/s 705 mmHg 88%
06:00 +7°C° 0 mm 0 m/s 705 mmHg 87%
07:00 +10°C° 0 mm 1 m/s 705 mmHg 77%
08:00 +12°C° 0 mm 1 m/s 705 mmHg 68%
09:00 +14°C° 0 mm 1 m/s 706 mmHg 58%
10:00 +15°C° 0 mm 2 m/s 705 mmHg 55%
11:00 +15°C° 0 mm 2 m/s 705 mmHg 51%
12:00 +16°C° 0 mm 2 m/s 705 mmHg 47%
13:00 +17°C° 0 mm 2 m/s 705 mmHg 45%
14:00 +18°C° 0 mm 2 m/s 705 mmHg 42%
15:00 +19°C° 0 mm 1 m/s 704 mmHg 40%
16:00 +18°C° 0.1 mm 1 m/s 704 mmHg 44%
17:00 +16°C° 0.1 mm 2 m/s 704 mmHg 48%
18:00 +15°C° 0.1 mm 2 m/s 704 mmHg 52%
19:00 +14°C° 0.3 mm 1 m/s 705 mmHg 64%
20:00 +12°C° 0.3 mm 1 m/s 706 mmHg 76%
21:00 +10°C° 0.3 mm 1 m/s 706 mmHg 89%
22:00 +10°C° 0.2 mm 1 m/s 706 mmHg 90%
23:00 +11°C° 0.2 mm 1 m/s 706 mmHg 91%

22 Abril, Quinta-feira

Tempo Temperatura Precipitação Vento Pressão Humidade
00:00 +10°C° 0.2 mm 0 m/s 706 mmHg 92%
01:00 +10°C° 0.1 mm 0 m/s 706 mmHg 91%
02:00 +10°C° 0.1 mm 0 m/s 706 mmHg 91%
03:00 +10°C° 0.1 mm 0 m/s 706 mmHg 91%
04:00 +10°C° 0 mm 0 m/s 706 mmHg 90%
05:00 +10°C° 0 mm 0 m/s 707 mmHg 89%
06:00 +10°C° 0 mm 0 m/s 707 mmHg 88%
07:00 +12°C° 0 mm 1 m/s 707 mmHg 82%
08:00 +13°C° 0 mm 1 m/s 707 mmHg 76%
09:00 +14°C° 0 mm 2 m/s 707 mmHg 70%
10:00 +15°C° 0.3 mm 2 m/s 707 mmHg 67%
11:00 +15°C° 0.3 mm 2 m/s 707 mmHg 64%
12:00 +16°C° 0.3 mm 3 m/s 707 mmHg 61%
13:00 +16°C° 0.3 mm 3 m/s 707 mmHg 63%
14:00 +16°C° 0.3 mm 2 m/s 707 mmHg 65%
15:00 +15°C° 0.3 mm 2 m/s 707 mmHg 67%
16:00 +15°C° 0.2 mm 2 m/s 708 mmHg 70%
17:00 +14°C° 0.2 mm 2 m/s 708 mmHg 72%
18:00 +14°C° 0.2 mm 1 m/s 708 mmHg 75%
19:00 +13°C° 0.1 mm 1 m/s 708 mmHg 79%
20:00 +13°C° 0.1 mm 1 m/s 708 mmHg 82%
21:00 +12°C° 0.1 mm 1 m/s 709 mmHg 86%
22:00 +11°C° 0 mm 1 m/s 709 mmHg 88%
23:00 +10°C° 0 mm 1 m/s 708 mmHg 91%

23 Abril, Sexta-feira

Tempo Temperatura Precipitação Vento Pressão Humidade
00:00 +10°C° 0 mm 1 m/s 708 mmHg 93%
01:00 +10°C° 0 mm 1 m/s 708 mmHg 93%
02:00 +9°C° 0 mm 1 m/s 708 mmHg 93%
03:00 +9°C° 0 mm 1 m/s 708 mmHg 93%
04:00 +9°C° 0 mm 1 m/s 708 mmHg 92%
05:00 +10°C° 0 mm 1 m/s 708 mmHg 91%
06:00 +10°C° 0 mm 1 m/s 708 mmHg 90%
07:00 +12°C° 0 mm 1 m/s 708 mmHg 81%
08:00 +13°C° 0 mm 2 m/s 708 mmHg 73%
09:00 +15°C° 0 mm 2 m/s 709 mmHg 64%
10:00 +16°C° 0 mm 3 m/s 709 mmHg 59%
11:00 +17°C° 0 mm 3 m/s 709 mmHg 53%
12:00 +18°C° 0 mm 3 m/s 709 mmHg 48%
13:00 +18°C° 0 mm 4 m/s 708 mmHg 48%
14:00 +18°C° 0 mm 4 m/s 708 mmHg 49%
15:00 +18°C° 0 mm 4 m/s 708 mmHg 50%
16:00 +17°C° 0 mm 3 m/s 708 mmHg 56%
17:00 +15°C° 0 mm 2 m/s 708 mmHg 62%
18:00 +14°C° 0 mm 2 m/s 708 mmHg 68%
19:00 +14°C° 0.1 mm 1 m/s 708 mmHg 71%
20:00 +13°C° 0.1 mm 1 m/s 709 mmHg 75%
21:00 +12°C° 0.1 mm 1 m/s 709 mmHg 78%
22:00 +12°C° 0.3 mm 1 m/s 709 mmHg 80%
23:00 +12°C° 0.3 mm 1 m/s 708 mmHg 82%
Mostrar mais